GW2474 Weather Reports


time (UTC)temp
C
wind
direction
speed
KPH
gust
KPH
rain 1hr
cm
rain 24hr
cm
rain mn
cm
humidity
%
barometer
mb
20260504150109 17 203 3.2 20.9 0.00 0.00 0.00 62 1005.2
20260504081604 8 216 3.2 8.0 0.00 0.00 0.00 77 1006.2
20260504080113 8 0 3.2 9.7 0.00 0.00 0.00 77 1006.5
20260504044556 10 175 3.2 9.7 0.00 0.00 0.00 70 1008.7
20260504043052 10 150 4.8 8.0 0.00 0.00 0.00 70 1008.8
20260504041554 10 229 1.6 11.3 0.00 0.00 0.00 70 1008.8
20260504040112 10 236 3.2 8.0 0.00 0.00 0.00 69 1009.1
20260504034556 10 0 3.2 14.5 0.00 0.00 0.00 69 1009.2
20260504033049 10 284 4.8 9.7 0.00 0.00 0.00 69 1009.4
20260504031556 10 217 3.2 11.3 0.00 0.00 0.00 69 1009.4
20260504030055 10 165 1.6 9.7 0.00 0.00 0.00 69 1009.5
20260504024556 10 133 4.8 17.7 0.00 0.00 0.00 70 1009.7
20260504023101 10 165 4.8 11.3 0.00 0.00 0.00 70 1009.7
20260504021557 10 179 3.2 14.5 0.00 0.00 0.00 70 1009.8
20260504020052 10 169 3.2 12.9 0.00 0.00 0.00 71 1010.0
20260504014605 10 145 3.2 8.0 0.00 0.00 0.00 71 1009.8
20260504013100 10 171 1.6 9.7 0.00 0.00 0.00 71 1009.8
20260504011555 10 188 1.6 8.0 0.00 0.00 0.00 70 1009.9
20260504010057 10 0 3.2 11.3 0.00 0.00 0.00 69 1009.9
20260504004553 11 0 3.2 9.7 0.00 0.00 0.00 68 1010.1
20260504003101 11 167 1.6 8.0 0.00 0.00 0.00 67 1010.2
20260504001606 11 171 0.0 8.0 0.00 0.00 0.00 65 1010.3
20260504000113 11 206 3.2 11.3 0.00 0.00 0.00 65 1010.3
20260503234555 11 0 3.2 12.9 0.00 0.00 0.00 64 1010.5
20260503233054 11 338 9.7 19.3 0.00 0.00 0.00 63 1010.7
20260503231553 12 306 9.7 24.1 0.00 0.00 0.00 62 1010.9
20260503230057 12 277 12.9 30.6 0.00 0.00 0.00 60 1010.9
20260503224553 12 284 16.1 27.4 0.00 0.00 0.00 59 1010.9
20260503223051 13 277 16.1 37.0 0.00 0.00 0.00 57 1010.9
20260503221557 15 299 17.7 33.8 0.00 0.00 0.00 53 1010.7
20260503220052 15 246 14.5 33.8 0.00 0.00 0.00 46 1010.4
20260503214631 16 179 19.3 33.8 0.00 0.00 0.00 45 1010.4
20260503213054 15 260 14.5 27.4 0.00 0.00 0.00 45 1010.4
20260503211554 16 247 8.0 27.4 0.00 0.00 0.00 45 1010.5
20260503210054 16 227 9.7 27.4 0.00 0.00 0.00 44 1010.4
20260503204552 16 261 17.7 38.6 0.00 0.00 0.00 44 1010.6
20260503203053 16 248 11.3 32.2 0.00 0.00 0.00 44 1010.6
20260503201550 16 192 17.7 35.4 0.00 0.00 0.00 43 1010.8
20260503200100 16 247 11.3 30.6 0.00 0.00 0.00 42 1010.9
20260503194556 16 257 8.0 19.3 0.00 0.00 0.00 42 1011.1
20260503193059 16 119 14.5 35.4 0.00 0.00 0.00 42 1011.2
20260503191603 16 264 9.7 29.0 0.00 0.00 0.00 43 1011.5
20260503190051 16 287 11.3 30.6 0.00 0.00 0.00 44 1011.7
20260503184552 16 269 11.3 29.0 0.00 0.00 0.00 43 1011.8
20260503183112 16 257 9.7 30.6 0.00 0.00 0.00 44 1012.1
20260503181614 15 242 9.7 32.2 0.00 0.00 0.00 46 1012.1
20260503180052 15 292 17.7 27.4 0.00 0.00 0.00 43 1012.4
20260503174553 15 286 16.1 37.0 0.00 0.00 0.00 45 1012.7
20260503173059 15 269 11.3 33.8 0.00 0.00 0.00 43 1012.9
20260503171558 14 290 14.5 30.6 0.00 0.00 0.00 45 1013.2